Location: Blachownia
(50.7807°N, 18.9578°E)
Time: 17:31:40
(UTC+02:00)

ISS - Pass Details

Date: 25 January 2019
Orbit: 411 x 421 km, 51.6° (Epoch: 21 October)

Event Time Altitude Azimuth Distance (km) Brightness Sun altitude
Rises 16:40:57 0° 196° (SSW) 2,401 0.8 -3.3°
Reaches altitude 10° 16:43:52 10° 169° (S) 1,542 -0.7 -3.7°
Maximum altitude 16:45:40 14° 137° (SE) 1,341 -1.4 -4.0°
Drops below altitude 10° 16:47:29 10° 106° (ESE) 1,551 -1.3 -4.2°
Enters shadow 16:49:16 - 87° (E) 2,042 -0.9 -4.5°
